Weather in San Fernando del Valle de Catamarca

Argentina     28°28′32″S   65°46′37″W
temp.,
°C
wind,
m/s
gust,
m/s
humid.,
%
clouds,
%
prec.,
mm/h
press.,
hPa
HPBL,
m
17 september, fri
fri1700:00+16nne914300 0.0 1016277
03:00+14nne611340 0.0 1014150
06:00+12nne44375 0.0 101452
09:00+18nne45285 0.0 1015318
12:00+26nne44192 0.0 10121501
15:00+29ne54150 0.0 10091852
18:00+27ne77190 0.0 10081115
21:00+18ne58320 0.0 101298
18 september, sat
sat1800:00+17ne57320 0.0 101286
03:00+17ne57340 0.0 101096
06:00+14nne33430 0.0 101021
09:00+20nne34341 0.0 1011417
12:00+28ne56232 0.0 10091598
15:00+30ne862194 0.0 10051663
18:00+28ne992474 0.0 10041112
21:00+21ne61035100 0.0 1007137
19 september, sun
sun1900:00+21nne6113498 0.0 1007161
03:00+20ene5747100 0.0 1007101
06:00+19ne4555100 0.0 100685
09:00+22ne345298 0.0 1008388
12:00+29nne353735 0.0 10051541
15:00+32ese223196 0.0 10012311
18:00+30se223795 0.0 10011646
21:00+25e345778 0.0 1006136
20 september, mon
mon2000:00+22s3466100 0.0 1008122
03:00+19ssw51072100 0.0 1011454
06:00+17ssw71186100 0.3 1014774
09:00+16ssw9127099 0.4 1018749
12:00+17sw7125750 0.1 1019982
15:00+23ssw101042100 0.1 10161496
18:00+20sw6743100 0.0 10171072
21:00+15wsw115794 0.0 102013
21 september, tue
tue2100:00+17s1151100 0.0 102221
03:00+16sw466698 0.0 1022276
06:00+15nnw2280100 0.1 1022140
09:00+16nne3570100 0.3 1024447
12:00+16nne5766100 0.1 1024906
15:00+19nne7853100 0.1 10201154
18:00+19nne894770 0.0 10191223
21:00+16ne585959 0.0 1021237